DELTA 1 DEB, 2977

Orbit data source: Space-Track

DELTA 1 DEB, 2977 is space debris in SSO originally from a launch on Thu, 20 Apr 1967 UTC launched from the Air Force Western Test Range (AFWTR). Debris objects in space refer to the collection of defunct objects orbiting the Earth. Examples of debris include non-operational satellites, rocket bodies, and fragments generated from explosions, collisions, or faulty payload assembly.

Loading next visibility...
Identifier
2977, 1967-036D
Orbit
SSO
Country
Flag of USUS
Related business
Manufacturer
Unknown
Mission
Spacecraft
Bus & Motor
Unknown
Mass
Unknown
Launch date (UTC)
1967-04-20 (59 years ago)
Launch vehicle
Unknown
Launch site
Air Force Western Test Range (AFWTR)
Object type
Payload
Rocket body
Debris
Shape & HBR
Unknown shape, 0.1 m
Radar Cross Section
Medium (>0.1 m² and <1 m²)

Expand to show TLE details & history
Last TLE update: 20 hours ago

TLE from 20 hours ago
0 DELTA 1 DEB
1 02977U 67036D   26255.39157669 -.00000036  00000-0  50119-4 0  9993
2 02977 101.6280 218.0436 0059929  97.3384  54.4886 12.56869356724343
Epoch: 2026-09-12T09:23Z
TLE epoch observation values (Epoch: 2026-09-12T09:23:52.226Z)
Latitude
27.03588°
Longitude
-88.32728°
Altitude
1,411.893 km
Speed
7.169 km/s
True Right ascension
02h 56m 09s
True Declination
26° 54' 31"
Sunlit
Object was in daylight at epoch
Visualization orbit readout
Latitude
Unknown
Longitude
Unknown
Altitude
Unknown
Speed
Unknown
Apparent Right ascension
Unknown
Apparent Declination
Unknown
Sunlit
N/A
Visualization observer readout
Local Sidereal Time
21:56:13
Azimuth
Unknown
Elevation
Unknown
Doppler factor
Unknown
Orbital elements
Apogee altitude
1,480.238 km
Perigee altitude
1,386.61 km
Semi-major axis
7,811.561 km
Eccentricity
0.00599
Inclination
101.628°
RAAN
218.0436°
Arg. of periapsis
97.3384°
True anomaly
55.05004°
Mean anomaly
54.4886°
Eccentric anomaly
54.76907°
Mean motion
3.14367 °/min
Orbital period
114.52 mins
BSTAR
0.000050119
Loading maneuver chart data...
Computing Atmospheric mass density...
Loading historical data...
Loading historical data...
Loading historical data...
Loading historical data...
Loading historical data...
Loading historical data...
Loading historical data...
Other satellites on launch #36 in the year 1967 (1967-04-20 UTC)

Documentation

Showing up to 5 results
|